Location: Nakusp
(50.2330°N, 117.8000°W)
Time: 13:43:42
(UTC-07:00)

Daily predictions for brighter satellites

Satellite Brightness Start Highest point End
(mag) Time Altitude Azimuth Time Altitude Azimuth Time Altitude Azimuth
Cosmos 2278 3.7 20:06:37 10° SSW 20:12:13 65° ESE 20:17:53 10° NNE
Cosmos 1570 Rocket 4.0 20:10:13 10° SSW 20:15:31 84° ESE 20:20:49 10° NNE
Lacrosse 5 2.0 20:13:22 10° WNW 20:18:26 75° SW 20:23:29 10° SE
H-2A R/B 2.8 20:14:41 10° SSE 20:18:36 88° ENE 20:22:35 10° NNW
Cosmos 2123 Rocket 4.3 20:18:22 10° NNW 20:24:33 73° W 20:30:41 10° S
Cosmos 1980 Rocket 3.3 20:21:41 10° SSE 20:25:57 22° E 20:30:15 10° NE
Cosmos 2369 3.7 20:21:06 10° SSW 20:26:46 74° ESE 20:32:29 10° NNE
Cosmos 1975 3.0 20:23:35 10° S 20:27:36 55° E 20:31:38 10° NNE
Lacrosse 5 rocket 3.3 20:25:55 10° W 20:28:43 20° SW 20:31:26 10° S
Cosmos 2150 Rocket 4.0 20:25:13 10° NNW 20:30:24 84° ENE 20:35:35 10° SSE
H-2A R/B 4.1 20:29:37 10° ENE 20:30:53 11° NE 20:32:08 10° NE
SPOT 5 3.9 20:28:48 10° ESE 20:33:03 30° ENE 20:37:08 10° N
ERS-1 Rocket 3.1 20:29:47 10° SSE 20:34:42 58° ENE 20:39:39 10° N
Helios 1B rocket 4.0 20:31:24 10° N 20:35:18 41° WNW 20:39:10 10° SW
NOSS 2-1 (D) 4.4 20:31:59 10° WSW 20:35:58 55° NW 20:40:50 10° NE
EO 1 Delta rocket 3.9 20:31:49 10° N 20:36:30 84° E 20:41:45 10° S
NOSS 2-1 (C) 4.4 20:33:00 10° WSW 20:37:00 55° NW 20:41:52 10° NE
Cosmos 1459 Rocket 4.4 20:32:49 10° SSE 20:38:25 41° E 20:44:06 10° NNE
CZ-2D R/B 4.3 20:37:25 10° S 20:41:11 48° W 20:44:59 10° NNW
FENGYUN 3A 4.4 20:37:32 10° S 20:42:47 55° W 20:48:03 10° NNW
CZ-4 DEB 2.7 20:40:37 10° SSE 20:43:44 70° ENE 20:46:53 10° N
Cosmos 1656 3.7 20:39:53 10° SSW 20:45:24 61° ESE 20:50:52 10° NE
SJ-11-01 4.3 20:41:22 10° SSE 20:46:03 76° ENE 20:50:45 10° NNW
Cosmos 1898 Rocket 3.8 20:40:58 10° NNW 20:46:16 72° WSW 20:51:30 10° SSE
Cosmos 2263 Rocket 3.6 20:42:03 10° NNW 20:46:39 25° NE 20:50:51 11° E
Cosmos 1763 Rocket 4.4 20:42:33 10° SSE 20:46:42 26° E 20:50:51 10° NE
Resurs 01 Rocket 4.2 20:43:57 10° SW 20:47:23 22° W 20:50:51 10° NW
Cosmos 1500 3.2 20:44:10 10° S 20:47:53 58° E 20:51:37 10° NNE
Cosmos 2227 Rocket 4.0 20:45:39 10° NW 20:50:33 31° WSW 20:55:25 10° SSW
Cosmos 1340 2.9 20:48:33 10° N 20:52:16 49° ENE 20:55:15 15° SSE
Cosmos 1125 Rocket 4.3 20:47:29 10° NNW 20:52:19 36° NE 20:55:59 16° ESE
YAOGAN 6 3.8 20:50:42 16° ESE 20:52:49 27° ENE 20:56:00 10° N
Terra 3.9 20:54:51 10° E 20:57:12 14° NE 20:59:33 10° NNE
Cosmos 2322 Rocket 3.6 20:58:39 16° ESE 20:59:38 17° E 21:03:02 10° ENE
USA 186 3.7 20:58:46 10° SSW 21:01:19 25° W 21:03:44 10° NW
Cosmos 468 Rocket 3.9 20:59:05 10° SSW 21:04:09 68° ESE 21:09:17 10° NNE
Cosmos 1939 Rocket 2.9 21:00:58 10° SSE 21:05:07 87° ENE 21:09:19 10° NNW
Cosmos 2297 Rocket 3.8 21:00:41 10° NW 21:05:39 32° WSW 21:10:35 10° SSW
Meteor 1-21 4.3 21:00:15 10° N 21:06:02 71° ENE 21:11:24 12° SSE
ALOS 4.2 21:03:34 10° SSW 21:07:39 29° W 21:11:46 10° NNW
Cosmos 841 Rocket 4.0 21:05:23 10° SSE 21:10:07 36° ESE 21:14:50 10° NE
Cosmos 1726 Rocket 4.1 21:07:21 16° SSE 21:10:29 39° E 21:14:37 10° NNE
USA 215 3.6 21:06:05 13° E 21:11:51 63° NNE 21:18:18 10° WNW
Cosmos 405 Rocket 4.1 21:10:03 10° NNE 21:13:00 21° ENE 21:13:54 19° E
Cosmos 2227 4.2 21:09:11 10° NNW 21:14:59 88° WSW 21:19:24 18° SSE
Cosmos 1814 Rocket 3.9 21:10:37 10° SSW 21:15:55 73° ESE 21:21:13 10° NNE
Cosmos 1802 Rocket 4.0 21:10:38 10° S 21:16:57 67° E 21:23:22 10° NNE
MetOp-A 4.2 21:15:10 18° SSE 21:19:08 66° ENE 21:24:29 10° N
Cosmos 1825 Rocket 3.7 21:15:39 10° NNW 21:20:05 78° W 21:23:59 13° S
ASTEX 1 3.6 21:16:51 10° NNE 21:21:45 50° E 21:25:07 19° SSE
Tiangong 1 3.3 21:20:51 10° SW 21:22:29 14° SSW 21:22:45 13° SSW
Cosmos 2016 Rocket 3.9 21:20:48 10° S 21:26:51 66° E 21:33:03 10° NNE
Cosmos 1743 2.7 21:24:00 10° S 21:27:55 88° W 21:31:53 10° N
RESURS DK-1 3.9 21:24:23 10° NW 21:28:07 32° WSW 21:31:31 12° S
ATLAS CENTAUR R/B 4.4 21:27:45 10° WNW 21:31:04 18° NNW 21:34:18 10° NNE
Cosmos 1953 Rocket 3.6 21:26:39 10° NNW 21:31:08 81° W 21:34:19 19° S
Cosmos 372 Rocket 4.4 21:27:24 10° NNW 21:32:21 46° ENE 21:34:40 28° ESE
Cosmos 2278 Rocket 4.5 21:32:56 10° N 21:35:33 13° NNE 21:38:11 10° NE
H-2A R/B 2.2 21:35:03 20° S 21:37:46 66° WSW 21:41:56 10° NNW
Cosmos 2173 Rocket 4.1 21:32:44 10° SSW 21:39:06 80° W 21:45:28 10° N
Cosmos 1238 4.2 21:37:50 10° N 21:41:04 59° ENE 21:41:18 57° ESE
USA 245 4.5 21:39:36 24° SSE 21:43:40 77° ENE 21:49:55 10° N
BREEZE-M DEB (TANK) 4.4 21:40:59 10° W 21:44:51 52° SSW 21:50:25 25° SE
Cosmos 2228 3.2 21:44:12 39° SE 21:45:08 47° E 21:49:16 10° NNE
SL-08 RB Rocket 3.9 21:44:03 35° SE 21:45:43 55° ENE 21:50:15 10° N
Cosmos 1697 Rocket 3.0 21:40:12 10° SW 21:45:50 69° WNW 21:51:29 10° NNE
Envisat 3.9 21:43:51 10° S 21:48:37 45° W 21:53:32 10° NNW
Cosmos 1758 Rocket 3.9 21:45:23 10° NNW 21:49:42 61° W 21:52:16 23° S
Nimbus 7 Rocket 4.4 21:44:48 10° NNE 21:50:54 83° ESE 21:57:00 10° SSW
Cosmos 1864 Rocket 4.4 21:50:50 20° S 21:55:12 72° E 22:01:19 10° NNE
Cosmos 1842 3.6 21:51:20 10° NNW 21:55:12 61° W 21:56:49 32° SSW
PSLV R/B 3.3 21:54:54 58° SW 21:55:13 64° WSW 21:58:17 10° NNW
deb Chang Zheng 4 3.7 21:50:59 10° NNE 21:55:29 80° WNW 21:59:15 14° SSW
SL-16 R/B 2.6 21:54:57 35° SE 21:56:18 41° ESE 22:01:36 10° NE
NOAA 11 4.1 21:55:11 32° SSE 21:57:51 84° ENE 22:03:22 10° NNW
Cosmos 1844 Rocket 4.3 21:54:05 10° NNW 21:58:29 23° NE 22:01:08 17° ENE
CZ-4B R/B 3.6 21:54:45 10° NNE 21:59:21 45° E 21:59:59 43° ESE
GP-B 4.0 21:55:46 10° NNE 21:59:41 31° E 21:59:41 31° E
Tsikada Rocket 4.1 21:53:42 10° N 22:00:10 84° W 22:04:10 25° S
ARGOS 3.1 21:57:55 33° SSE 22:00:25 87° ENE 22:05:52 10° NNW
Lacrosse 5 3.9 21:57:20 10° W 22:00:42 18° SW 22:03:17 13° SSW
SL-19 R/B 4.1 21:56:59 10° NNE 22:02:28 63° ESE 22:04:48 33° S
Cosmos 1707 3.7 22:00:13 10° N 22:03:39 33° ENE 22:03:39 33° ENE
H-2A R/B 2.1 22:08:08 45° ESE 22:09:19 58° ENE 22:14:10 10° N
Cosmos 1980 Rocket 2.4 22:03:43 10° SW 22:09:23 72° WNW 22:15:08 10° NNE
Cosmos 2360 Rocket 3.7 22:11:52 20° ENE 22:11:52 20° ENE 22:14:35 10° NE
SPOT 5 3.8 22:07:52 20° SSW 22:11:00 43° W 22:15:32 10° NNW
CZ-4 SHROUD 4.0 22:11:39 43° WSW 22:11:44 44° W 22:14:42 10° NNW
Cosmos 1666 3.1 22:10:53 33° SW 22:12:20 59° WNW 22:16:08 10° N
Cosmos 332 Rocket 3.9 22:14:33 52° ESE 22:14:46 52° ESE 22:19:33 10° NNE
Cosmos 371 Rocket 4.0 22:18:51 35° ENE 22:18:51 35° ENE 22:22:25 10° NE
Landsat 7 3.7 22:17:54 56° SE 22:18:52 78° ENE 22:23:39 10° NNW
Cosmos 2058 Rocket 3.7 22:18:15 22° SSW 22:20:58 57° WNW 22:25:25 10° N
Cosmos 836 Rocket 4.5 22:17:07 19° SSW 22:21:00 88° WNW 22:26:22 10° NNE
Meteor 2-17 Rocket 4.3 22:20:22 37° S 22:22:54 77° E 22:28:58 10° NNE
Cosmos 783 Rocket 4.5 22:25:26 56° SE 22:26:01 60° ESE 22:31:14 10° NNE
YAOGAN 6 4.3 22:25:12 24° SW 22:26:21 28° W 22:29:37 10° NNW
Cosmos 1725 Rocket 4.2 22:22:33 17° SSW 22:27:24 70° WNW 22:33:41 10° N
Cosmos 1763 Rocket 4.2 22:23:16 10° SW 22:28:13 51° WNW 22:33:12 10° NNE
SPOT 1/Viking Rocket 4.1 22:26:33 32° SSW 22:28:43 52° W 22:33:50 10° NNW
Cosmos 2098 Rocket 4.3 22:22:35 10° SSW 22:29:09 60° WNW 22:34:28 10° N
Cosmos 2263 Rocket 2.1 22:25:37 10° NNW 22:31:12 78° WSW 22:32:32 53° S
Terra 1.7 22:33:41 69° SE 22:34:10 78° ENE 22:38:57 10° NNW
Cosmos 1125 Rocket 4.5 22:29:37 10° NW 22:34:27 39° WSW 22:36:17 29° SSW
CARTOSAT-1 3.4 22:35:58 82° E 22:36:02 83° ENE 22:40:23 10° NNW
Meteor 2-5 Rocket 3.7 22:30:34 10° NNW 22:36:33 87° WSW 22:38:07 51° S
CZ-4 R/B 3.7 22:32:48 10° NNE 22:37:34 80° ESE 22:38:01 71° SSE
Cosmos 1441 Rocket 3.9 22:35:54 10° N 22:39:05 48° NNE 22:39:05 48° NNE
Cosmos 2322 Rocket 2.1 22:40:22 35° SSW 22:42:52 90° E 22:48:32 10° NNE
DELTA 2 DEB (DPAF) 4.1 22:43:36 69° SW 22:43:52 72° WSW 22:48:22 10° NNW
BREEZE-M DEB (TANK) 3.5 22:36:23 10° WSW 22:43:19 45° SSW 22:43:19 45° SSW
Genesis I 3.8 22:43:52 10° NW 22:47:08 55° WNW 22:47:08 55° WNW
Cosmos 2322 4.5 22:49:23 36° E 22:49:23 36° E 22:53:28 10° NE
Cosmos 405 Rocket 3.9 22:45:45 10° NNW 22:49:08 35° W 22:49:08 35° W
Cosmos 2233 Rocket 4.1 22:48:18 35° SSW 22:51:03 73° WNW 22:57:21 10° N
Meteor 1-24 Rocket 3.8 22:45:14 10° N 22:51:20 76° ENE 22:52:20 62° SE
Lacrosse 4 Rocket 4.1 22:55:57 11° NE 22:55:57 11° NE 22:56:11 10° NE
USA 215 3.3 22:53:25 52° SSE 22:54:54 65° SW 23:01:25 10° WNW
Cosmos 1766 Rocket 4.5 22:51:33 10° N 22:55:10 39° NE 22:55:10 39° NE
Cosmos 1812 Rocket 3.7 22:58:22 69° NW 22:58:22 69° NW 23:02:31 10° N
Spot 4 3.8 23:03:12 79° W 23:03:12 79° W 23:07:58 10° NNW
Cosmos 540 Rocket 3.6 23:02:06 51° SW 23:03:18 69° WNW 23:08:28 10° NNE
IGS 5A 4.0 23:05:04 54° WNW 23:05:04 54° WNW 23:08:42 10° NNW
CZ-4C R/B 4.5 23:09:13 42° W 23:09:13 42° W 23:13:21 10° NNW
COSMOS 2428 4.1 23:12:55 25° ENE 23:12:55 25° ENE 23:15:57 10° NE
ATLAS CENTAUR R/B 4.4 23:09:23 10° NNW 23:11:57 14° N 23:14:25 10° NE
Cosmos 2034 Rocket 3.9 23:14:56 65° ESE 23:15:11 66° E 23:21:21 10° NNE
Cosmos 2278 Rocket 3.0 23:16:03 10° NNW 23:21:22 39° NE 23:22:10 37° ENE
Cosmos 1092 Rocket 4.2 23:17:43 10° N 23:23:59 57° ENE 23:24:26 55° E
DMSP B5D2-2 4.2 23:21:10 10° N 23:26:25 68° WNW 23:26:53 64° WSW
Cosmos 1464 Rocket 4.1 23:36:22 58° SW 23:37:30 70° WNW 23:43:52 10° N
Meteor 1-21 Rocket 4.2 23:32:42 10° N 23:38:27 74° ENE 23:38:27 74° ENE
Cosmos 1513 Rocket 4.4 23:38:42 72° SW 23:39:19 80° W 23:45:39 10° N
SL-16 R/B 3.3 23:36:43 19° WSW 23:40:25 42° NW 23:45:50 10° NNE
Cosmos 1844 Rocket 2.6 23:37:31 10° NNW 23:42:46 79° NW 23:42:46 79° NW
CZ-4B R/B 4.0 23:45:37 19° NNE 23:45:37 19° NNE 23:47:02 10° N
Meteor 1-22 Rocket 4.3 23:45:41 70° W 23:45:54 71° WNW 23:51:32 10° N
Nadezhda 4 Rocket 3.9 23:40:41 10° NNW 23:47:02 80° W 23:47:23 77° SW
Cosmos 1844 3.7 23:41:27 10° NNW 23:46:55 76° NNE 23:46:55 76° NNE
H-2A R/B 3.7 23:48:47 21° W 23:49:08 22° W 23:52:55 10° NW
Cosmos 2360 Rocket 2.3 23:53:36 70° WNW 23:53:44 70° WNW 23:59:26 10° NNE
